GALAXY 30 (WAAS/PRN 135)

Last updated on Wed Nov 05 2025 00:03:27 GMT+0000 (Coordinated Universal Time)

1 46114U 20056C 25307.53451837 .00000000 00000+0 00000+0 0 9990 2 46114 0.0172 272.8668 0002451 312.5785 245.0185 1.00270462 19030
UTC large
Height (km)
Speed (km/s)
/
Latitude / Longitude
Inclination (degrees)
Orbital Period (minutes)
Azimuth
Elevation
Range (km)
Doppler Factor

Next 0 passes for location: London (51.5072 / 0.1276)

Sorry there are no passes over London.